Lapse_Rate
5.1 5.1 4.7 5.3 5.7 6.0 6.1 6.2 6.4 6.3 6.4 8.3 8.6 8.3 7.5 6.9 6.8 6.8 6.8 6.7 7.0 7.1 7.4 6.1 4.9 4.9 6.0 5.9 5.9 6.0 6.2 6.3 6.5 6.6 6.7 6.8 7.0 7.2 7.2 7.3 7.4 7.8 7.5 7.7
5.0 4.8 5.1 5.4 6.0 7.0 7.1 7.1 7.1 7.4 7.3 7.8 8.3 8.7 7.8 8.1 7.4 7.4 7.8 8.0 7.4 7.6 7.2 5.9 5.2 6.2 6.1 6.0 6.1 6.0 6.0 6.3 6.5 6.6 6.7 6.7 6.8 6.9 7.2 7.6 7.6 7.6 7.5 7.2
5.5 5.5 6.4 6.7 6.7 7.6 7.7 8.3 8.3 8.6 8.6 8.6 8.8 9.1 8.7 7.9 8.0 8.3 8.3 8.3 8.6 8.2 6.6 5.4 5.2 6.1 6.2 5.9 6.1 6.0 6.0 5.9 6.1 6.4 6.7 6.8 6.9 6.9 6.9 6.9 6.9 7.0 7.5 7.4
6.0 6.2 6.9 7.4 7.4 8.7 9.3 8.6 9.0 8.9 9.0 8.9 8.6 9.3 9.1 8.7 9.0 9.3 8.5 9.2 8.2 7.1 6.0 5.3 5.9 6.0 5.9 5.9 6.1 6.2 6.1 6.0 6.0 6.1 6.2 6.5 6.8 7.0 7.2 6.8 6.9 7.0 6.6 6.8
6.1 7.0 7.2 7.9 7.7 8.2 8.8 8.8 8.2 8.0 7.6 7.7 8.2 8.6 8.2 8.6 9.3 9.0 8.9 8.1 7.4 6.7 6.4 6.4 6.3 6.1 6.0 6.2 6.3 6.3 6.3 6.3 6.3 6.4 6.5 6.4 6.5 6.6 7.0 7.1 7.0 7.0 6.9 7.2
7.3 7.8 7.8 7.8 7.6 7.9 8.1 7.9 8.0 8.0 8.2 7.9 7.4 8.3 8.2 8.5 9.1 9.3 7.9 7.5 6.7 6.4 7.2 6.8 6.6 6.6 6.4 6.2 6.1 6.2 6.4 6.6 6.7 6.8 6.8 6.7 6.7 6.7 6.7 6.7 6.9 6.9 6.9 6.5
8.1 8.0 8.0 8.0 7.6 7.9 7.8 7.8 8.1 7.3 7.8 7.8 8.6 8.8 8.3 7.9 8.1 7.7 7.0 6.5 5.8 7.6 7.5 7.2 7.0 6.8 6.6 6.5 6.3 6.3 6.4 6.5 6.5 6.7 6.9 7.0 7.0 7.0 6.9 6.8 6.8 6.8 6.7 6.3
8.4 7.8 8.4 8.1 7.6 7.6 8.0 7.8 6.9 7.4 7.8 8.3 7.2 7.9 8.1 6.8 7.1 6.7 6.3 5.8 6.5 7.6 7.2 7.2 7.0 6.9 6.8 6.6 6.4 6.5 6.5 6.4 6.4 6.5 6.6 6.7 6.9 6.9 6.9 6.8 6.8 6.9 7.0 6.9
8.2 7.8 7.6 7.6 7.9 7.5 7.6 7.7 7.9 7.6 7.0 7.8 7.6 7.4 6.6 6.4 6.2 6.4 6.2 6.0 6.6 6.9 6.9 7.1 7.1 7.0 6.7 6.6 6.6 6.7 6.6 6.4 6.3 6.3 6.2 6.1 6.1 6.1 6.4 6.6 6.6 6.7 7.0 7.0
8.1 8.0 7.4 7.5 7.0 7.3 7.4 8.0 8.0 6.9 7.4 8.1 9.0 8.9 7.0 6.8 6.5 6.2 6.4 6.8 7.2 7.3 7.1 7.4 7.3 6.9 6.7 6.6 6.5 6.4 6.1 6.0 6.1 6.0 6.0 5.8 5.9 6.0 6.2 6.4 6.4 6.4 6.9 7.0
8.1 7.3 7.1 7.0 6.8 7.5 7.5 7.8 8.0 8.1 7.7 7.4 8.2 8.5 7.0 7.2 7.1 6.8 6.8 7.1 7.3 7.4 7.6 7.3 6.8 6.5 6.3 6.1 6.0 5.8 5.9 5.8 5.9 5.9 5.8 5.9 5.9 6.0 6.1 6.4 6.5 6.2 6.5 7.1
7.5 7.0 7.1 7.2 7.6 7.4 7.9 8.2 7.9 7.9 7.8 8.1 8.1 8.1 7.8 7.4 7.0 7.2 6.9 6.6 6.8 6.9 6.9 6.3 6.1 5.9 5.9 5.8 5.7 5.8 5.8 6.0 6.2 6.0 6.0 6.2 6.2 5.8 5.9 5.8 5.9 6.1 6.5 6.9
6.7 6.6 7.2 7.6 7.3 7.6 7.6 7.9 7.8 7.7 7.7 7.7 7.9 8.3 7.6 7.6 7.1 7.0 6.6 5.1 5.2 6.0 6.3 5.9 5.6 5.4 5.4 5.4 5.5 5.7 5.9 6.2 6.3 6.3 6.3 6.0 6.0 5.8 5.9 5.7 5.9 6.2 6.5 6.6
6.5 7.0 7.3 7.5 7.5 7.8 7.7 7.5 7.7 7.9 7.7 7.7 7.9 8.1 8.9 7.9 7.8 7.2 6.2 5.6 5.8 5.9 6.0 5.7 5.6 5.5 5.4 5.3 5.5 5.6 5.9 5.9 5.8 5.6 5.8 5.7 5.7 5.8 6.0 5.8 5.9 6.1 5.9 6.1
6.3 6.9 7.2 7.3 7.7 7.7 7.6 7.6 7.9 8.0 8.1 8.0 7.7 8.1 8.2 8.2 7.5 6.6 5.8 6.0 5.9 5.9 5.7 5.5 5.3 5.2 5.3 5.5 5.2 5.5 5.7 5.9 5.8 5.8 6.0 5.7 6.0 5.8 5.7 5.8 5.9 5.7 5.6 5.6
6.6 6.5 6.5 6.6 7.1 7.3 7.5 7.6 7.7 7.9 8.0 7.9 7.8 7.7 7.7 7.5 6.7 6.4 6.2 6.4 6.1 5.7 5.5 5.3 5.4 5.6 6.0 5.7 5.7 5.7 5.4 5.4 5.8 5.4 5.6 6.0 5.9 5.9 5.7 5.7 5.5 5.9 5.6 6.1
6.4 6.6 6.6 7.0 7.2 7.3 7.3 7.4 7.4 7.4 7.5 7.6 7.6 7.5 6.8 6.7 6.6 6.5 6.3 6.1 5.5 5.4 5.4 5.6 5.5 5.7 5.8 5.7 5.4 5.3 5.1 4.9 5.1 5.2 5.3 5.5 5.7 5.8 5.9 5.8 5.7 5.5 5.6 5.7
6.7 6.7 6.7 7.0 6.7 6.9 7.1 6.3 6.7 6.6 6.6 6.5 6.9 6.6 6.6 6.8 6.6 6.4 6.2 6.1 5.9 5.9 5.9 5.7 5.7 5.7 5.6 5.4 5.2 5.0 5.1 4.6 4.7 5.0 4.9 4.9 5.3 5.3 5.5 5.6 5.5 5.4 5.6 5.6
6.6 6.7 6.6 6.6 6.9 6.9 6.7 6.0 6.6 6.6 6.4 6.1 6.6 6.3 6.6 6.9 6.7 6.8 6.6 6.5 6.4 6.3 5.9 5.6 5.7 5.6 5.4 5.2 4.9 4.9 4.8 4.6 4.5 4.6 4.6 4.6 4.8 5.0 5.1 5.2 5.3 5.3 5.0 5.3
6.3 6.1 6.3 6.6 6.7 6.8 6.0 5.8 6.2 6.7 6.2 6.8 7.0 6.6 6.2 6.3 6.0 6.5 6.5 6.4 6.2 6.0 6.0 5.7 5.6 5.5 5.3 4.9 4.8 4.7 4.8 4.6 4.6 4.4 4.4 4.5 4.6 4.5 4.5 4.5 4.6 4.5 4.5 4.7
6.0 6.2 6.4 6.9 7.0 6.8 6.8 6.8 6.6 6.3 6.3 6.4 6.4 6.1 5.8 6.0 6.0 6.0 6.0 6.0 5.9 5.8 5.6 5.6 5.5 5.3 5.1 4.9 4.7 4.8 4.8 4.9 4.7 4.6 4.5 4.5 4.5 4.5 4.4 4.4 4.4 4.4 4.4 4.4
6.6 6.8 7.0 7.2 7.1 7.0 6.4 6.5 6.2 6.3 6.4 6.1 6.2 6.1 5.7 5.6 5.7 5.8 5.7 5.8 5.6 5.6 5.6 5.4 5.5 5.1 5.0 5.1 5.1 5.1 5.2 5.2 4.9 4.7 4.7 4.9 4.9 4.9 4.9 4.6 4.4 4.5 4.5 4.5
6.8 7.1 7.1 6.9 6.6 6.6 6.7 6.3 6.0 6.0 6.0 5.8 5.7 5.3 5.4 5.6 5.6 5.7 5.7 5.5 5.5 5.4 5.3 5.3 5.1 4.9 5.1 5.1 5.0 5.0 5.4 5.2 5.1 4.9 4.9 4.9 4.8 4.9 4.9 5.0 5.1 5.2 5.0 4.8
6.9 6.8 6.4 6.5 6.9 6.8 6.5 6.1 6.0 5.9 5.6 5.5 5.5 5.5 5.6 5.6 5.6 5.6 5.6 5.6 5.5 5.4 5.4 5.3 5.1 5.1 5.2 5.3 5.3 5.3 5.2 5.0 4.9 5.0 5.0 5.0 5.1 5.2 5.2 5.1 5.1 5.0 5.2 5.2
6.6 6.6 6.3 6.4 6.7 6.7 6.4 6.2 6.0 5.7 5.5 5.4 5.3 5.2 5.2 5.4 5.5 5.5 5.5 5.5 5.4 5.4 5.5 5.3 5.4 5.5 5.6 5.6 5.4 5.4 5.4 5.1 5.0 5.0 5.1 5.2 5.2 5.3 5.3 5.4 5.4 5.4 5.5 5.3
6.7 6.6 6.5 6.5 6.7 6.6 6.4 6.2 6.0 5.8 5.5 5.4 5.3 5.3 5.3 5.3 5.3 5.4 5.5 5.5 5.5 5.6 5.5 5.4 5.4 5.5 5.5 5.5 5.5 5.5 5.6 5.5 5.5 5.4 5.3 5.3 5.4 5.4 5.5 5.5 5.5 5.6 5.4 5.3
Wind_Speed
16 13 16 19 20 24 22 25 28 26 26 27 22 20 17 15 17 15 15 16 14 12 12 14 10 9 7 7 7 8 6 6 5 5 6 6 4 6 4 8 9 9 9 14
17 22 21 22 24 25 27 28 28 25 26 22 25 24 22 20 20 18 19 15 14 14 14 13 11 9 8 6 7 7 9 9 7 7 8 7 8 7 8 9 11 13 9 12
23 26 23 24 25 27 25 25 25 29 26 27 23 24 22 20 24 22 19 14 5 12 16 12 7 9 6 5 6 9 9 10 9 9 8 7 8 8 8 6 8 8 7 10
27 24 27 27 27 26 22 21 26 25 20 16 22 18 22 20 22 20 24 12 16 14 12 9 8 8 6 7 8 9 10 10 10 11 10 11 9 10 9 10 11 11 11 15
30 25 26 23 25 24 23 22 18 21 14 21 23 16 15 23 20 16 16 20 16 13 10 9 9 6 7 9 9 9 11 11 11 12 11 9 10 9 10 11 17 16 14 14
28 24 24 16 18 20 15 17 20 21 13 15 25 18 17 19 16 10 22 18 15 12 10 7 7 8 9 9 9 8 10 12 13 13 12 12 13 14 11 12 12 12 12 12
21 25 26 14 17 14 14 13 7 4 7 15 18 16 16 15 20 20 19 15 13 12 9 7 10 10 11 11 11 11 12 13 13 14 14 14 14 15 16 14 11 14 13 13
12 12 16 15 18 14 9 10 6 6 7 13 10 10 4 13 14 17 16 14 12 12 8 9 10 10 12 13 14 14 14 15 16 16 15 14 14 10 11 13 12 13 13 14
7 9 2 9 12 11 12 14 17 6 13 11 11 6 7 13 14 13 12 12 10 9 9 10 11 12 12 13 14 15 15 15 16 16 14 15 14 15 14 17 16 13 17 16
11 12 2 6 4 9 8 2 3 2 4 10 13 12 6 8 9 8 10 9 8 10 12 12 12 12 11 12 12 13 13 14 15 16 14 14 16 16 16 15 17 18 18 20
8 3 2 8 9 14 10 11 7 4 5 4 6 4 6 9 7 7 5 6 9 12 12 12 12 12 13 13 13 13 13 15 15 14 15 16 15 15 14 14 15 17 19 22
6 2 6 11 5 7 6 9 12 9 11 8 9 10 8 10 8 4 4 5 9 10 11 11 12 12 13 14 14 13 13 14 14 15 15 15 15 15 14 13 15 16 20 15
6 1 5 5 8 10 8 12 11 9 9 14 9 5 8 5 5 5 5 10 6 9 11 11 12 12 13 13 13 14 14 15 15 15 15 14 15 16 14 14 15 14 15 11
6 6 7 5 2 5 7 13 14 13 9 12 11 15 11 6 5 6 12 9 8 11 11 12 12 13 13 14 13 14 14 14 15 15 14 15 16 16 13 13 13 13 15 14
3 8 11 14 17 10 13 12 11 14 13 14 11 13 12 10 11 10 9 8 10 11 12 11 12 12 14 14 13 13 13 12 15 14 14 14 14 15 15 14 13 13 16 16
6 6 3 11 13 13 15 15 15 17 16 17 17 14 11 9 10 8 9 9 10 10 10 10 12 14 14 15 13 13 13 13 13 12 13 13 15 16 16 16 16 15 17 21
8 4 5 8 9 9 9 11 17 16 15 15 12 6 14 12 13 13 11 10 10 8 9 11 11 11 11 12 12 13 13 12 12 12 14 14 13 14 16 16 18 19 17 18
5 9 5 7 0 7 3 10 8 6 10 11 12 13 10 12 11 12 11 9 8 7 9 9 9 9 11 11 12 11 11 12 13 14 15 15 14 14 15 17 18 18 17 20
7 7 5 6 7 11 4 5 4 4 3 8 7 5 9 11 11 11 9 9 8 9 7 7 6 8 10 11 10 10 11 13 15 15 15 15 15 17 17 17 17 16 16 18
8 8 7 6 7 7 5 6 5 2 5 8 8 6 8 8 4 5 7 8 8 7 6 6 8 8 11 10 9 9 11 13 15 14 14 15 16 17 16 17 15 14 14 16
8 8 10 8 7 3 3 5 3 4 3 7 7 7 4 5 6 10 8 8 6 5 5 6 6 7 5 6 8 10 11 13 10 12 14 15 16 16 16 15 15 14 14 15
8 6 6 7 5 8 9 3 3 4 5 6 8 10 16 13 11 10 8 8 8 8 7 8 7 6 5 3 4 7 9 6 8 9 12 15 15 13 13 16 14 15 14 15
2 2 2 5 3 4 5 5 4 5 6 6 8 9 13 13 11 9 8 8 7 6 6 8 7 8 9 11 11 9 3 7 8 9 10 9 13 14 14 15 15 13 14 13
3 4 2 7 5 4 6 7 7 8 9 8 9 10 11 12 9 9 8 7 6 6 6 8 9 10 10 11 12 12 13 8 10 11 11 11 9 11 13 11 11 12 12 11
3 3 7 5 6 6 7 8 8 9 9 9 9 9 10 10 10 9 8 7 6 6 8 9 9 9 10 12 12 13 13 13 11 11 11 11 9 11 8 11 9 10 13 14
4 4 2 3 9 7 8 8 9 8 8 9 10 10 9 10 10 9 7 5 6 7 7 8 9 9 10 11 11 12 12 11 11 10 9 8 8 8 8 7 6 18 20 23
Wind_Direction
216 233 240 250 251 259 264 269 276 281 288 297 293 284 276 256 272 263 233 223 232 252 112 100 87 78 43 46 26 11 350 2 351 328 327 321 300 297 259 226 234 215 208 202
234 242 247 258 268 277 275 276 279 280 282 276 277 276 275 272 269 254 247 230 214 213 123 104 86 73 47 19 27 359 3 2 356 343 340 315 306 297 296 303 297 221 229 207
245 257 267 261 257 262 263 269 277 278 280 284 286 275 261 261 257 252 239 230 133 119 99 95 80 63 48 24 18 0 1 352 351 347 328 322 318 308 298 277 276 254 233 218
251 268 275 265 272 270 264 278 294 297 291 290 280 275 269 266 265 230 220 132 93 83 76 72 56 40 5 36 22 0 357 348 346 352 339 328 313 300 300 301 301 304 282 233
255 256 259 257 258 267 278 279 281 297 308 281 277 276 261 275 268 177 127 105 99 93 77 52 47 25 18 31 17 6 348 344 349 347 337 328 313 310 314 307 306 300 296 283
260 253 260 283 272 281 304 306 263 262 244 262 258 264 269 263 283 189 99 108 110 91 70 48 42 22 16 24 10 359 352 344 343 339 329 321 309 301 298 293 292 294 292 287
248 252 252 218 261 271 291 281 286 269 241 254 259 254 259 33 75 104 120 110 89 75 66 46 29 14 13 8 1 357 356 342 338 331 325 321 312 302 291 288 283 281 283 283
273 285 266 207 227 255 262 280 211 265 261 271 314 283 163 97 83 89 90 93 88 76 59 47 28 21 9 4 2 358 352 341 335 329 323 315 305 295 287 281 279 275 273 275
243 249 251 260 239 224 258 238 249 286 280 279 253 195 111 95 85 76 86 84 69 58 46 33 24 24 9 7 2 2 354 341 332 326 320 312 303 293 287 280 272 270 269 269
243 274 246 282 258 244 245 337 225 191 252 251 254 260 85 167 108 88 84 67 51 38 27 23 22 22 15 10 1 357 351 341 331 323 318 308 301 290 284 281 275 264 261 261
248 245 273 202 223 225 215 234 223 240 231 303 309 308 69 97 114 127 78 59 38 32 22 12 13 16 14 6 1 356 348 339 330 322 316 308 306 300 294 289 283 276 266 252
62 226 228 208 226 312 292 246 251 241 253 261 276 288 132 154 156 104 86 68 44 37 25 13 8 13 7 0 357 351 351 338 331 326 319 316 313 315 308 307 305 300 291 240
166 54 267 259 258 236 244 239 243 251 254 262 265 273 115 129 156 177 203 87 45 49 22 16 10 12 6 1 354 352 353 341 336 330 328 329 332 333 318 330 325 324 318 313
235 179 202 252 279 242 234 248 249 237 242 257 255 269 257 141 289 3 45 70 51 52 29 19 9 4 3 359 355 358 348 345 338 336 339 343 346 335 332 338 341 -0 343 2
249 246 264 264 278 284 271 262 249 259 243 247 265 275 301 312 23 38 67 36 47 37 26 17 10 2 2 1 0 359 345 344 339 342 348 350 352 354 0 354 360 10 11 15
220 254 336 280 282 285 277 275 259 265 267 265 272 277 306 339 38 36 59 46 51 40 24 15 14 12 8 4 358 357 349 349 345 347 357 356 6 8 8 8 13 15 30 24
198 225 233 276 291 303 285 271 255 269 269 277 266 287 32 37 62 50 49 61 56 37 26 23 15 11 7 2 1 359 350 348 351 355 6 11 14 18 20 19 26 27 25 36
214 219 240 263 226 253 264 58 21 340 310 340 341 41 64 89 79 66 47 67 63 42 36 27 17 11 9 3 6 353 356 3 4 10 14 14 17 24 27 32 33 33 33 38
209 249 239 234 255 275 196 37 33 38 300 353 337 17 109 113 105 76 77 74 70 62 51 35 22 22 14 10 358 357 9 15 15 13 15 15 18 26 24 31 32 35 40 40
216 221 254 234 261 273 76 35 17 2 253 15 358 339 151 148 237 95 79 79 72 70 75 51 36 35 28 12 359 16 22 24 21 13 13 19 20 24 27 26 29 31 40 43
204 211 225 235 240 126 10 349 323 241 40 345 326 292 194 112 69 116 107 85 67 57 80 81 58 37 18 10 21 34 29 27 17 25 26 24 27 27 25 27 30 27 35 39
184 196 205 231 243 235 359 266 264 6 61 22 26 97 103 110 108 99 91 82 66 55 60 71 71 59 21 356 18 32 36 10 17 28 39 36 29 29 31 31 29 34 35 38
179 29 24 21 51 83 47 77 57 43 76 73 79 95 113 112 105 100 92 80 66 71 63 64 63 57 47 34 24 26 341 22 17 29 36 56 46 38 35 38 32 32 31 41
172 193 117 180 109 102 107 89 72 72 80 87 95 96 102 106 108 106 98 91 81 70 63 64 60 53 44 37 32 28 16 37 35 29 34 30 49 53 44 43 45 41 36 34
39 190 136 98 130 124 96 96 102 94 94 93 93 99 103 108 102 100 95 84 86 72 65 65 65 58 50 44 36 31 30 20 36 37 28 32 33 38 72 57 47 55 52 50
13 13 355 60 133 86 117 120 119 110 108 109 112 107 99 104 102 101 90 97 82 69 67 66 65 61 50 43 37 34 26 28 28 36 32 27 33 34 35 48 79 63 71 63